Simultaneous Nadir Overpasses (SNOs) Predictions

Prediction of SNOs between GOES-15 and LANDSAT-8 Satellite Orbit:

Table of predicted SNOs for the next 14.0 days since TLE Epoch: 3/7/2025
Index Date Time (GOES-15) GOES-15 Lat,Lon LANDSAT-8 Lat,Lon Distance(km) Time Diff (sec)
1 03/09/2025 17:59:30 0.05, 61.28 0.37, 62.77 169.36 80
2 03/10/2025 06:20:44 -0.06, 61.34 0.75, 57.62 423.81 80
3 03/12/2025 06:08:32 -0.06, 61.34 0.11, 60.57 86.99 80
4 03/14/2025 05:59:00 -0.06, 61.33 -0.55, 63.52 249.98 80
5 03/14/2025 18:20:24 0.06, 61.26 -0.54, 58.33 333.15 80
6 03/16/2025 18:08:11 0.06, 61.26 0.08, 61.29 3.73 80
7 03/18/2025 17:53:18 0.06, 61.27 0.73, 64.25 339.61 80
8 03/19/2025 06:14:33 -0.07, 61.34 0.38, 59.10 254.73 80
9 03/21/2025 06:04:59 -0.08, 61.35 -0.23, 62.06 80.65 80
